Location: Ethel Rock
(53.4667°N, 4.5667°W)
Time: 01:07:00
(UTC+00:00)

ERS-2 - Pass Details

Date: 24 October 2020
Orbit: 493 x 497 km, 98.6° (Epoch: 26 November)

Event Time Altitude Azimuth Distance (km) Brightness Sun altitude
Rises 04:25:39 0° 159° (SSE) 2,572 5.8 -23.9°
Reaches altitude 10° 04:27:42 10° 158° (SSE) 1,693 4.9 -23.6°
Enters shadow 04:30:04 39° 152° (SSE) 762 3.1 -23.2°
